Погода в Кыстатыаме

Россия / Республика Саха (Якутия)     67°19′17″N   123°20′39″E
темп.,
°C
ветер,
м/с
пор.,
м/с
влажн.,
%
обл.,
%
осадки,
мм/ч
давл.,
гПа
погр.,
м
27 февраля, сб
сб2700:00−35ю119973 0.0 103319
03:00−35ююв129884 0.0 103219
06:00−37ююв229898 0.0 103219
09:00−37юв119792 0.0 103118
12:00−35всв119267 0.0 103184
15:00−34ссв009350 0.0 102979
18:00−35с239310 0.0 102819
21:00−35ссз349251 0.0 102644
28 февраля, вс
вс2800:00−34с5793100 0.0 1025136
03:00−34ссз5794100 0.0 1023178
06:00−33ссз5991100 0.0 1022224
09:00−33с5891100 0.0 1022290
12:00−31ссз5791100 0.0 1022313
15:00−30ссз4689100 0.0 1022327
18:00−29с2490100 0.0 1023220
21:00−29сз1292100 0.0 102469
1 марта, пн
пн100:00−29зсз1193100 0.0 102419
03:00−32юв1197100 0.0 102419
06:00−34юв1210068 0.0 102519
09:00−34ююв2210059 0.0 102519
12:00−31ююв229781 0.0 1025113
15:00−29ююв229489 0.0 1025190
18:00−31юв229898 0.0 102619
21:00−31юв239898 0.1 102620
2 марта, вт
вт200:00−31юв2299100 0.0 102620
03:00−32юв229998 0.1 102619
06:00−33вюв119999 0.0 102619
09:00−33ссв1198100 0.1 102619
12:00−31с2393100 0.0 1026249
15:00−30с2391100 0.1 1026289
18:00−32с339599 0.0 102735
21:00−34с339589 0.0 102823
3 марта, ср
ср300:00−35ссз349559 0.0 102734
03:00−36ссз449550 0.0 102748
06:00−37ссз459537 0.0 102777
09:00−37ссз479444 0.0 1026138
12:00−35с589266 0.0 1025313
15:00−33с579076 0.0 1024384
18:00−32с4993100 0.0 1023327
21:00−32ссз5992100 0.0 1022400